Time,TemperatureF,DewpointF,PressureIn,WindDirection,WindDirectionDegrees,WindSpeedMPH,WindSpeedGustMPH,Humidity,HourlyPrecipIn,Conditions,Clouds,dailyrainin,SoftwareType,DateUTC
2013-03-07 00:02:00,32.0,30.0,30.06,WNW,296,3.0,6.0,91,0.00,,,0.21,,2013-03-07 05:02:00,
2013-03-07 00:12:00,32.0,30.0,30.06,WNW,296,3.0,6.0,91,0.00,,,0.21,,2013-03-07 05:12:00,
2013-03-07 00:22:00,32.0,30.0,30.06,West,281,3.0,7.0,91,0.00,,,0.21,,2013-03-07 05:22:00,
2013-03-07 00:32:00,32.0,30.0,30.06,West,271,5.0,8.0,92,0.00,,,0.21,,2013-03-07 05:32:00,
2013-03-07 00:42:00,32.0,30.0,30.06,West,271,5.0,8.0,92,0.00,,,0.21,,2013-03-07 05:42:00,
2013-03-07 00:52:00,32.0,30.0,30.06,WNW,303,4.0,6.0,92,0.00,,,0.21,,2013-03-07 05:52:00,
2013-03-07 01:01:00,32.0,30.0,30.06,West,272,5.0,7.0,92,0.00,,,0.21,,2013-03-07 06:01:00,
2013-03-07 01:11:00,32.0,30.0,30.06,West,272,5.0,7.0,92,0.00,,,0.21,,2013-03-07 06:11:00,
2013-03-07 01:21:00,32.0,30.0,30.06,WNW,290,5.0,7.0,92,0.00,,,0.21,,2013-03-07 06:21:00,
2013-03-07 01:32:00,32.0,30.0,30.07,West,265,4.0,7.0,92,0.00,,,0.21,,2013-03-07 06:32:00,
2013-03-07 01:42:00,32.0,30.0,30.07,West,265,4.0,7.0,92,0.00,,,0.21,,2013-03-07 06:42:00,
2013-03-07 01:52:00,32.0,30.0,30.07,West,272,5.0,7.0,92,0.00,,,0.21,,2013-03-07 06:52:00,
2013-03-07 02:01:00,32.0,30.0,30.07,NW,320,7.0,11.0,92,0.00,,,0.21,,2013-03-07 07:01:00,
2013-03-07 02:11:00,32.0,30.0,30.07,NW,320,7.0,11.0,92,0.00,,,0.21,,2013-03-07 07:11:00,
2013-03-07 02:22:00,32.0,30.0,30.07,West,271,5.0,9.0,92,0.00,,,0.21,,2013-03-07 07:22:00,
2013-03-07 02:32:00,32.0,30.0,30.06,WNW,294,5.0,12.0,92,0.00,,,0.21,,2013-03-07 07:32:00,
2013-03-07 02:43:00,32.0,30.0,30.06,WNW,294,5.0,12.0,92,0.00,,,0.21,,2013-03-07 07:43:00,
2013-03-07 02:53:00,32.0,30.0,30.06,West,271,6.0,9.0,92,0.00,,,0.21,,2013-03-07 07:53:00,
2013-03-07 03:03:00,32.0,30.0,30.06,WNW,300,5.0,9.0,93,0.00,,,0.21,,2013-03-07 08:03:00,
2013-03-07 03:12:00,32.0,30.0,30.06,WNW,300,5.0,9.0,93,0.00,,,0.21,,2013-03-07 08:12:00,
2013-03-07 03:23:00,32.0,30.0,30.06,West,279,4.0,7.0,93,0.00,,,0.21,,2013-03-07 08:23:00,
2013-03-07 03:33:00,32.0,30.0,30.06,West,276,5.0,8.0,93,0.00,,,0.21,,2013-03-07 08:33:00,
2013-03-07 03:44:00,32.0,30.0,30.06,West,276,5.0,8.0,93,0.00,,,0.21,,2013-03-07 08:44:00,
2013-03-07 03:54:00,31.0,29.0,30.06,WNW,294,4.0,10.0,93,0.00,,,0.21,,2013-03-07 08:54:00,
2013-03-07 04:03:00,31.0,29.0,30.07,WNW,295,4.0,12.0,93,0.00,,,0.21,,2013-03-07 09:03:00,
2013-03-07 04:13:00,31.0,29.0,30.07,WNW,295,4.0,12.0,93,0.00,,,0.21,,2013-03-07 09:13:00,
2013-03-07 04:33:00,31.0,29.0,30.08,West,260,4.0,13.0,93,0.00,,,0.21,,2013-03-07 09:33:00,
2013-03-07 04:43:00,31.0,29.0,30.08,West,260,4.0,13.0,93,0.00,,,0.21,,2013-03-07 09:43:00,
2013-03-07 04:53:00,31.0,29.0,30.08,WNW,287,4.0,11.0,93,0.00,,,0.21,,2013-03-07 09:53:00,
2013-03-07 05:03:00,31.0,29.0,30.07,WNW,302,3.0,7.0,93,0.00,,,0.21,,2013-03-07 10:03:00,
2013-03-07 05:13:00,31.0,29.0,30.07,WNW,302,3.0,7.0,93,0.00,,,0.21,,2013-03-07 10:13:00,
2013-03-07 05:23:00,31.0,29.0,30.08,NW,304,4.0,10.0,93,0.00,,,0.21,,2013-03-07 10:23:00,
2013-03-07 05:33:00,31.0,29.0,30.08,West,266,4.0,7.0,92,0.01,,,0.22,,2013-03-07 10:33:00,
2013-03-07 05:43:00,31.0,29.0,30.08,West,266,4.0,7.0,92,0.01,,,0.22,,2013-03-07 10:43:00,
2013-03-07 05:53:00,31.0,29.0,30.09,West,263,4.0,7.0,92,0.01,,,0.22,,2013-03-07 10:53:00,
2013-03-07 06:03:00,31.0,29.0,30.09,WNW,297,6.0,9.0,92,0.01,,,0.22,,2013-03-07 11:03:00,
2013-03-07 06:12:00,31.0,29.0,30.09,WNW,297,6.0,9.0,92,0.01,,,0.22,,2013-03-07 11:12:00,
2013-03-07 06:23:00,31.0,29.0,30.10,WNW,296,5.0,8.0,92,0.01,,,0.22,,2013-03-07 11:23:00,
2013-03-07 06:33:00,31.0,29.0,30.10,NW,307,6.0,11.0,92,0.00,,,0.22,,2013-03-07 11:33:00,
2013-03-07 06:43:00,31.0,29.0,30.10,NW,307,6.0,11.0,92,0.00,,,0.22,,2013-03-07 11:43:00,
2013-03-07 06:54:00,31.0,29.0,30.10,WSW,248,5.0,10.0,92,0.00,,,0.22,,2013-03-07 11:54:00,
2013-03-07 07:03:00,31.0,29.0,30.11,WNW,284,5.0,7.0,92,0.00,,,0.22,,2013-03-07 12:03:00,
2013-03-07 07:12:00,31.0,29.0,30.11,WNW,284,5.0,7.0,92,0.00,,,0.22,,2013-03-07 12:12:00,
2013-03-07 07:23:00,31.0,29.0,30.12,West,279,7.0,11.0,91,0.00,,,0.22,,2013-03-07 12:23:00,
2013-03-07 07:33:00,31.0,29.0,30.13,WNW,302,9.0,13.0,91,0.00,,,0.22,,2013-03-07 12:33:00,
2013-03-07 07:43:00,31.0,29.0,30.13,WNW,302,9.0,13.0,91,0.00,,,0.22,,2013-03-07 12:43:00,
2013-03-07 07:53:00,30.0,28.0,30.14,West,265,7.0,11.0,91,0.00,,,0.22,,2013-03-07 12:53:00,
2013-03-07 08:03:00,30.0,28.0,30.14,WNW,294,5.0,9.0,91,0.00,,,0.22,,2013-03-07 13:03:00,
2013-03-07 08:12:00,30.0,28.0,30.14,WNW,294,5.0,9.0,91,0.00,,,0.22,,2013-03-07 13:12:00,
2013-03-07 08:23:00,30.0,28.0,30.16,West,276,6.0,9.0,91,0.00,,,0.22,,2013-03-07 13:23:00,
2013-03-07 08:32:00,30.0,28.0,30.16,West,269,5.0,9.0,91,0.00,,,0.22,,2013-03-07 13:32:00,
2013-03-07 08:42:00,30.0,28.0,30.16,West,269,5.0,9.0,91,0.00,,,0.22,,2013-03-07 13:42:00,
2013-03-07 08:53:00,30.0,28.0,30.16,WNW,282,5.0,9.0,91,0.00,,,0.22,,2013-03-07 13:53:00,
2013-03-07 09:02:00,30.0,28.0,30.17,NW,305,4.0,7.0,91,0.00,,,0.22,,2013-03-07 14:02:00,
2013-03-07 09:12:00,30.0,28.0,30.17,NW,305,4.0,7.0,91,0.00,,,0.22,,2013-03-07 14:12:00,
2013-03-07 09:23:00,30.0,27.0,30.17,WNW,293,6.0,14.0,90,0.00,,,0.22,,2013-03-07 14:23:00,
2013-03-07 09:33:00,30.0,27.0,30.17,WNW,291,7.0,14.0,90,0.00,,,0.22,,2013-03-07 14:33:00,
2013-03-07 09:42:00,30.0,27.0,30.17,WNW,291,7.0,14.0,90,0.00,,,0.22,,2013-03-07 14:42:00,
2013-03-07 09:54:00,30.0,27.0,30.18,WNW,290,6.0,11.0,89,0.00,,,0.22,,2013-03-07 14:54:00,
2013-03-07 10:03:00,31.0,28.0,30.18,West,277,6.0,8.0,89,0.00,,,0.22,,2013-03-07 15:03:00,
2013-03-07 10:12:00,31.0,28.0,30.18,West,277,6.0,8.0,89,0.00,,,0.22,,2013-03-07 15:12:00,
2013-03-07 10:23:00,31.0,28.0,30.18,NW,321,5.0,10.0,89,0.00,,,0.22,,2013-03-07 15:23:00,
2013-03-07 10:32:00,31.0,28.0,30.18,NNW,342,7.0,10.0,87,0.00,,,0.22,,2013-03-07 15:32:00,
2013-03-07 10:42:00,31.0,28.0,30.18,NNW,342,7.0,10.0,87,0.00,,,0.22,,2013-03-07 15:42:00,
2013-03-07 10:53:00,31.0,28.0,30.18,WNW,300,8.0,13.0,87,0.00,,,0.22,,2013-03-07 15:53:00,
2013-03-07 11:02:00,31.0,27.0,30.18,WSW,245,7.0,9.0,86,0.00,,,0.22,,2013-03-07 16:02:00,
2013-03-07 11:13:00,31.0,27.0,30.18,WSW,245,7.0,9.0,86,0.00,,,0.22,,2013-03-07 16:13:00,
2013-03-07 11:24:00,31.0,27.0,30.18,West,275,5.0,13.0,86,0.00,,,0.22,,2013-03-07 16:24:00,
2013-03-07 11:33:00,32.0,28.0,30.19,WNW,298,6.0,9.0,85,0.01,,,0.23,,2013-03-07 16:33:00,
2013-03-07 11:43:00,32.0,28.0,30.19,WNW,298,6.0,9.0,85,0.01,,,0.23,,2013-03-07 16:43:00,
2013-03-07 11:53:00,33.0,28.0,30.19,West,267,8.0,12.0,83,0.01,,,0.23,,2013-03-07 16:53:00,
2013-03-07 12:02:00,34.0,28.0,30.18,West,281,7.0,13.0,80,0.02,,,0.24,,2013-03-07 17:02:00,
2013-03-07 12:12:00,34.0,28.0,30.18,West,281,7.0,13.0,80,0.02,,,0.24,,2013-03-07 17:12:00,
2013-03-07 12:23:00,34.0,28.0,30.18,WNW,300,9.0,17.0,77,0.03,,,0.25,,2013-03-07 17:23:00,
2013-03-07 12:33:00,35.0,28.0,30.18,West,278,12.0,19.0,76,0.03,,,0.24,,2013-03-07 17:33:00,
2013-03-07 12:43:00,35.0,28.0,30.18,West,278,12.0,19.0,76,0.03,,,0.24,,2013-03-07 17:43:00,
2013-03-07 12:55:00,35.0,28.0,30.18,NW,313,8.0,18.0,76,0.04,,,0.25,,2013-03-07 17:55:00,
2013-03-07 13:04:00,35.0,28.0,30.18,NNW,332,10.0,16.0,75,0.04,,,0.26,,2013-03-07 18:04:00,
2013-03-07 13:13:00,35.0,28.0,30.18,NNW,332,10.0,16.0,75,0.04,,,0.26,,2013-03-07 18:13:00,
2013-03-07 13:22:00,35.0,28.0,30.17,WNW,297,11.0,18.0,74,0.04,,,0.27,,2013-03-07 18:22:00,
2013-03-07 13:32:00,35.0,28.0,30.17,WNW,290,11.0,16.0,74,0.04,,,0.25,,2013-03-07 18:32:00,
2013-03-07 13:42:00,35.0,28.0,30.17,WNW,290,11.0,16.0,74,0.04,,,0.25,,2013-03-07 18:42:00,
2013-03-07 13:53:00,35.0,27.0,30.16,WNW,284,14.0,21.0,72,0.04,,,0.26,,2013-03-07 18:53:00,
2013-03-07 14:03:00,36.0,28.0,30.16,WNW,293,11.0,18.0,72,0.04,,,0.27,,2013-03-07 19:03:00,
2013-03-07 14:12:00,36.0,28.0,30.16,WNW,293,11.0,18.0,72,0.04,,,0.27,,2013-03-07 19:12:00,
2013-03-07 14:23:00,36.0,28.0,30.16,NW,324,13.0,20.0,71,0.04,,,0.28,,2013-03-07 19:23:00,
2013-03-07 14:35:00,36.0,27.0,30.16,NW,321,10.0,21.0,70,0.04,,,0.25,,2013-03-07 19:35:00,
2013-03-07 14:43:00,36.0,27.0,30.16,NW,321,10.0,21.0,70,0.04,,,0.25,,2013-03-07 19:43:00,
2013-03-07 14:53:00,36.0,27.0,30.16,NW,323,7.0,16.0,70,0.04,,,0.26,,2013-03-07 19:53:00,
2013-03-07 15:02:00,36.0,27.0,30.16,NW,312,11.0,24.0,69,0.04,,,0.27,,2013-03-07 20:02:00,
2013-03-07 15:13:00,36.0,27.0,30.16,NW,312,11.0,24.0,69,0.04,,,0.27,,2013-03-07 20:13:00,
2013-03-07 15:22:00,36.0,27.0,30.16,WNW,286,8.0,17.0,69,0.03,,,0.27,,2013-03-07 20:22:00,
2013-03-07 15:33:00,36.0,26.0,30.16,NNW,328,7.0,14.0,68,0.03,,,0.24,,2013-03-07 20:33:00,
2013-03-07 15:43:00,36.0,26.0,30.16,NNW,328,7.0,14.0,68,0.03,,,0.24,,2013-03-07 20:43:00,
2013-03-07 15:54:00,36.0,26.0,30.16,WNW,298,11.0,18.0,67,0.02,,,0.24,,2013-03-07 20:54:00,
2013-03-07 16:03:00,36.0,26.0,30.16,NW,324,12.0,22.0,66,0.01,,,0.24,,2013-03-07 21:03:00,
2013-03-07 16:12:00,36.0,26.0,30.16,NW,324,12.0,22.0,66,0.01,,,0.24,,2013-03-07 21:12:00,
2013-03-07 16:23:00,36.0,26.0,30.16,WNW,283,7.0,16.0,68,0.01,,,0.24,,2013-03-07 21:23:00,
2013-03-07 16:33:00,36.0,27.0,30.16,WNW,301,9.0,15.0,69,0.00,,,0.20,,2013-03-07 21:33:00,
2013-03-07 16:43:00,36.0,27.0,30.16,WNW,301,9.0,15.0,69,0.00,,,0.20,,2013-03-07 21:43:00,
2013-03-07 16:53:00,36.0,27.0,30.16,NW,304,9.0,15.0,70,0.00,,,0.20,,2013-03-07 21:53:00,
2013-03-07 17:02:00,35.0,27.0,30.16,NW,317,8.0,14.0,73,0.00,,,0.20,,2013-03-07 22:02:00,
2013-03-07 17:12:00,35.0,27.0,30.16,NW,317,8.0,14.0,73,0.00,,,0.20,,2013-03-07 22:12:00,
2013-03-07 17:23:00,35.0,27.0,30.17,NW,306,10.0,15.0,73,0.00,,,0.20,,2013-03-07 22:23:00,
2013-03-07 17:33:00,35.0,28.0,30.17,NW,324,5.0,12.0,74,0.00,,,0.18,,2013-03-07 22:33:00,
2013-03-07 17:43:00,35.0,28.0,30.17,NW,324,5.0,12.0,74,0.00,,,0.18,,2013-03-07 22:43:00,
2013-03-07 17:54:00,35.0,28.0,30.18,NW,321,6.0,13.0,74,0.00,,,0.18,,2013-03-07 22:54:00,
2013-03-07 18:03:00,35.0,28.0,30.19,NNW,333,4.0,12.0,76,0.01,,,0.19,,2013-03-07 23:03:00,
2013-03-07 18:13:00,35.0,28.0,30.19,NNW,333,4.0,12.0,76,0.01,,,0.19,,2013-03-07 23:13:00,
2013-03-07 18:22:00,34.0,28.0,30.19,NNW,343,6.0,9.0,77,0.01,,,0.19,,2013-03-07 23:22:00,
2013-03-07 18:34:00,34.0,28.0,30.19,NW,325,5.0,7.0,79,0.01,,,0.18,,2013-03-07 23:34:00,
2013-03-07 18:43:00,34.0,28.0,30.19,NW,325,5.0,7.0,79,0.01,,,0.18,,2013-03-07 23:43:00,
2013-03-07 18:54:00,33.0,28.0,30.19,North,355,2.0,7.0,81,0.01,,,0.18,,2013-03-07 23:54:00,
2013-03-07 19:04:00,33.0,28.0,30.20,NW,324,2.0,4.0,82,0.00,,,0.18,,2013-03-08 00:04:00,
2013-03-07 19:13:00,33.0,28.0,30.20,NW,324,2.0,4.0,82,0.00,,,0.18,,2013-03-08 00:13:00,
2013-03-07 19:23:00,33.0,28.0,30.20,NNW,340,0.0,5.0,83,0.00,,,0.18,,2013-03-08 00:23:00,
2013-03-07 19:34:00,33.0,29.0,30.21,NNW,340,1.0,4.0,84,0.00,,,0.18,,2013-03-08 00:34:00,
2013-03-07 19:44:00,33.0,29.0,30.21,NNW,340,1.0,4.0,84,0.00,,,0.18,,2013-03-08 00:44:00,
2013-03-07 19:54:00,33.0,29.0,30.21,NNW,340,2.0,4.0,84,0.00,,,0.18,,2013-03-08 00:54:00,
2013-03-07 20:02:00,33.0,29.0,30.21,WNW,300,4.0,9.0,84,0.00,,,0.18,,2013-03-08 01:02:00,
2013-03-07 20:11:00,33.0,29.0,30.21,WNW,300,4.0,9.0,84,0.00,,,0.18,,2013-03-08 01:11:00,
2013-03-07 20:22:00,32.0,28.0,30.21,NNW,336,4.0,9.0,85,0.00,,,0.18,,2013-03-08 01:22:00,
2013-03-07 20:33:00,32.0,28.0,30.21,North,360,4.0,8.0,86,0.00,,,0.17,,2013-03-08 01:33:00,
2013-03-07 20:42:00,32.0,28.0,30.21,North,360,4.0,8.0,86,0.00,,,0.17,,2013-03-08 01:42:00,
2013-03-07 20:52:00,32.0,29.0,30.21,NW,315,2.0,6.0,87,0.00,,,0.17,,2013-03-08 01:52:00,
2013-03-07 21:01:00,32.0,29.0,30.21,NW,309,2.0,5.0,88,0.00,,,0.17,,2013-03-08 02:01:00,
2013-03-07 21:12:00,32.0,29.0,30.21,NW,309,0.0,2.0,88,0.00,,,0.17,,2013-03-08 02:12:00,
2013-03-07 21:22:00,32.0,29.0,30.21,NW,309,0.0,2.0,88,0.00,,,0.17,,2013-03-08 02:22:00,
2013-03-07 21:32:00,32.0,29.0,30.21,NW,309,0.0,4.0,88,0.00,,,0.17,,2013-03-08 02:32:00,
2013-03-07 21:42:00,32.0,29.0,30.21,NW,309,0.0,4.0,88,0.00,,,0.17,,2013-03-08 02:42:00,
2013-03-07 21:53:00,32.0,29.0,30.21,NW,309,2.0,4.0,88,0.00,,,0.17,,2013-03-08 02:53:00,
2013-03-07 22:02:00,32.0,29.0,30.21,NNE,15,1.0,4.0,88,0.00,,,0.17,,2013-03-08 03:02:00,
2013-03-07 22:12:00,32.0,29.0,30.21,NNE,15,1.0,4.0,88,0.00,,,0.17,,2013-03-08 03:12:00,
2013-03-07 22:22:00,32.0,29.0,30.22,NNW,346,4.0,11.0,88,0.00,,,0.17,,2013-03-08 03:22:00,
2013-03-07 22:32:00,32.0,29.0,30.22,NW,321,5.0,11.0,89,0.00,,,0.17,,2013-03-08 03:32:00,
2013-03-07 22:43:00,32.0,29.0,30.22,NW,321,5.0,11.0,89,0.00,,,0.17,,2013-03-08 03:43:00,
2013-03-07 22:53:00,31.0,28.0,30.22,NNE,21,6.0,11.0,90,0.00,,,0.17,,2013-03-08 03:53:00,
2013-03-07 23:02:00,31.0,28.0,30.21,NNW,328,5.0,12.0,90,0.00,,,0.17,,2013-03-08 04:02:00,
2013-03-07 23:11:00,31.0,28.0,30.21,NNW,328,5.0,12.0,90,0.00,,,0.17,,2013-03-08 04:11:00,
2013-03-07 23:22:00,31.0,28.0,30.21,North,5,6.0,11.0,90,0.00,,,0.17,,2013-03-08 04:22:00,
2013-03-07 23:32:00,31.0,29.0,30.21,North,5,4.0,9.0,91,0.00,,,0.17,,2013-03-08 04:32:00,
2013-03-07 23:42:00,31.0,29.0,30.21,North,5,4.0,9.0,91,0.00,,,0.17,,2013-03-08 04:42:00,
2013-03-07 23:52:00,31.0,29.0,30.21,WNW,296,6.0,10.0,91,0.00,,,0.17,,2013-03-08 04:52:00,